TimeCDT,TemperatureF,Dew PointF,Humidity,Sea Level PressureIn,VisibilityMPH,Wind Direction,Wind SpeedMPH,Gust SpeedMPH,PrecipitationIn,Events,Conditions,WindDirDegrees,DateUTC
12:58 AM,75.2,71.6,89,30.04,10.0,NE,4.6,-,N/A,,Mostly Cloudy,50,2013-10-02 05:58:00
1:58 AM,75.6,71.8,88,30.03,10.0,ENE,4.6,-,N/A,,Mostly Cloudy,60,2013-10-02 06:58:00
2:58 AM,74.8,72.0,91,30.02,10.0,ENE,5.8,-,N/A,,Scattered Clouds,60,2013-10-02 07:58:00
3:58 AM,74.7,71.8,91,30.01,10.0,ENE,8.1,-,N/A,,Clear,70,2013-10-02 08:58:00
4:58 AM,75.2,72.3,91,30.02,10.0,East,6.9,-,N/A,Thunderstorm,Partly Cloudy,80,2013-10-02 09:58:00
5:07 AM,75.2,71.6,89,30.01,10.0,East,6.9,-,N/A,Rain,Light Rain,80,2013-10-02 10:07:00
5:37 AM,75.2,73.4,94,30.01,7.0,East,1.2,-,N/A,Rain,Light Rain,80,2013-10-02 10:37:00
5:47 AM,75.2,73.4,94,30.01,6.0,East,2.3,-,N/A,Rain-Thunderstorm,Light Thunderstorms and Rain,90,2013-10-02 10:47:00
5:57 AM,75.2,73.4,94,30.01,10.0,ENE,5.8,-,N/A,Rain-Thunderstorm,Light Thunderstorms and Rain,70,2013-10-02 10:57:00
5:58 AM,75.0,72.5,92,30.02,10.0,ENE,5.8,-,0.03,Rain-Thunderstorm,Light Thunderstorms and Rain,60,2013-10-02 10:58:00
6:02 AM,75.2,73.4,94,30.01,10.0,ENE,6.9,-,N/A,,Light Drizzle,70,2013-10-02 11:02:00
6:05 AM,75.2,71.6,89,30.01,10.0,East,5.8,-,N/A,,Scattered Clouds,80,2013-10-02 11:05:00
6:53 AM,75.2,71.6,89,30.02,10.0,SE,5.8,-,N/A,Rain,Light Rain,130,2013-10-02 11:53:00
6:58 AM,74.5,72.3,93,30.03,10.0,ESE,5.8,-,0.01,Rain,Light Rain,120,2013-10-02 11:58:00
7:08 AM,75.2,73.4,94,30.02,10.0,East,4.6,-,N/A,,Light Drizzle,100,2013-10-02 12:08:00
7:13 AM,75.2,73.4,94,30.02,10.0,East,3.5,-,N/A,,Scattered Clouds,90,2013-10-02 12:13:00
7:20 AM,75.2,73.4,94,30.03,10.0,East,4.6,-,N/A,Rain,Light Rain,90,2013-10-02 12:20:00
7:34 AM,75.2,71.6,89,30.03,10.0,East,6.9,-,N/A,,Clear,100,2013-10-02 12:34:00
7:54 AM,75.2,73.4,94,30.04,10.0,SE,4.6,-,N/A,,Mostly Cloudy,130,2013-10-02 12:54:00
7:58 AM,75.0,73.0,94,30.05,10.0,Variable,1.2,-,0.00,,Mostly Cloudy,0,2013-10-02 12:58:00
8:03 AM,75.2,73.4,94,30.04,10.0,ESE,2.3,-,N/A,,Scattered Clouds,110,2013-10-02 13:03:00
8:58 AM,75.9,72.3,89,30.06,10.0,Calm,Calm,-,N/A,,Partly Cloudy,0,2013-10-02 13:58:00
9:15 AM,75.2,73.4,94,30.05,10.0,ENE,5.8,-,N/A,Rain,Light Rain,70,2013-10-02 14:15:00
9:58 AM,75.6,73.0,92,30.06,10.0,ENE,3.5,-,0.02,Rain,Light Rain,60,2013-10-02 14:58:00
10:14 AM,75.2,73.4,94,30.05,10.0,ENE,4.6,-,N/A,,Light Drizzle,70,2013-10-02 15:14:00
10:15 AM,75.2,73.4,94,30.05,10.0,East,4.6,-,N/A,,Partly Cloudy,80,2013-10-02 15:15:00
10:20 AM,75.2,73.4,94,30.06,10.0,East,5.8,-,N/A,,Mostly Cloudy,90,2013-10-02 15:20:00
10:25 AM,75.2,73.4,94,30.06,10.0,East,5.8,-,N/A,,Mostly Cloudy,80,2013-10-02 15:25:00
10:30 AM,77.0,73.4,89,30.06,10.0,East,6.9,-,N/A,,Mostly Cloudy,90,2013-10-02 15:30:00
10:40 AM,77.0,73.4,89,30.06,10.0,East,6.9,-,N/A,,Overcast,80,2013-10-02 15:40:00
10:58 AM,76.8,74.1,91,30.07,10.0,NE,8.1,-,0.01,,Overcast,50,2013-10-02 15:58:00
11:53 AM,78.8,73.4,83,30.06,10.0,East,3.5,-,N/A,,Overcast,80,2013-10-02 16:53:00
11:58 AM,78.6,73.9,85,30.07,10.0,ENE,5.8,-,N/A,,Overcast,70,2013-10-02 16:58:00
12:08 PM,78.8,73.4,83,30.06,10.0,East,4.6,-,N/A,,Overcast,80,2013-10-02 17:08:00
12:18 PM,80.6,73.4,79,30.06,10.0,East,6.9,-,N/A,,Overcast,80,2013-10-02 17:18:00
12:23 PM,80.6,73.4,79,30.05,10.0,East,5.8,-,N/A,,Mostly Cloudy,80,2013-10-02 17:23:00
12:28 PM,80.6,73.4,79,30.05,10.0,ENE,6.9,-,N/A,,Overcast,70,2013-10-02 17:28:00
12:43 PM,80.6,75.2,84,30.04,10.0,East,6.9,-,N/A,,Mostly Cloudy,80,2013-10-02 17:43:00
12:58 PM,80.2,73.9,81,30.05,10.0,East,5.8,-,N/A,,Mostly Cloudy,90,2013-10-02 17:58:00
1:58 PM,80.8,73.0,77,30.02,10.0,East,6.9,-,N/A,,Partly Cloudy,90,2013-10-02 18:58:00
2:58 PM,82.4,73.0,73,30.00,10.0,East,8.1,-,N/A,,Clear,90,2013-10-02 19:58:00
3:58 PM,84.2,72.5,68,30.00,10.0,ENE,8.1,-,N/A,,Partly Cloudy,70,2013-10-02 20:58:00
4:33 PM,82.4,73.4,74,29.98,10.0,SSE,10.4,-,N/A,,Mostly Cloudy,150,2013-10-02 21:33:00
4:53 PM,80.6,73.4,79,29.99,10.0,SSE,10.4,-,N/A,,Mostly Cloudy,150,2013-10-02 21:53:00
4:58 PM,81.5,73.6,77,30.00,10.0,SE,10.4,-,N/A,,Mostly Cloudy,140,2013-10-02 21:58:00
5:03 PM,82.4,73.4,74,29.99,10.0,SE,12.7,-,N/A,,Mostly Cloudy,140,2013-10-02 22:03:00
5:23 PM,80.6,73.4,79,29.99,10.0,SE,11.5,-,N/A,,Overcast,140,2013-10-02 22:23:00
5:58 PM,80.6,73.6,79,30.00,10.0,ESE,10.4,-,N/A,,Mostly Cloudy,120,2013-10-02 22:58:00
6:03 PM,80.6,73.4,79,30.00,10.0,SE,11.5,-,N/A,,Mostly Cloudy,130,2013-10-02 23:03:00
6:58 PM,79.3,72.7,80,30.02,10.0,SE,10.4,-,N/A,,Mostly Cloudy,130,2013-10-02 23:58:00
7:03 PM,78.8,73.4,83,30.01,10.0,ESE,9.2,-,N/A,,Mostly Cloudy,110,2013-10-03 00:03:00
7:13 PM,78.8,73.4,83,30.01,10.0,ESE,6.9,-,N/A,,Mostly Cloudy,120,2013-10-03 00:13:00
7:23 PM,78.8,73.4,83,30.01,10.0,ESE,8.1,-,N/A,,Mostly Cloudy,120,2013-10-03 00:23:00
7:28 PM,78.8,73.4,83,30.01,10.0,East,8.1,-,N/A,,Scattered Clouds,100,2013-10-03 00:28:00
7:58 PM,78.4,72.7,82,30.02,10.0,East,9.2,-,N/A,,Mostly Cloudy,100,2013-10-03 00:58:00
8:58 PM,76.8,72.7,87,30.04,10.0,East,5.8,-,N/A,,Scattered Clouds,80,2013-10-03 01:58:00
9:58 PM,76.6,73.0,89,30.04,10.0,ENE,8.1,-,N/A,,Scattered Clouds,60,2013-10-03 02:58:00
10:03 PM,77.0,73.4,89,30.03,10.0,ENE,5.8,-,N/A,,Mostly Cloudy,70,2013-10-03 03:03:00
10:08 PM,75.2,73.4,94,30.04,10.0,East,6.9,-,N/A,,Mostly Cloudy,80,2013-10-03 03:08:00
10:23 PM,75.2,73.4,94,30.03,10.0,ENE,5.8,-,N/A,,Scattered Clouds,70,2013-10-03 03:23:00
10:58 PM,75.9,71.8,87,30.04,10.0,East,6.9,-,N/A,,Scattered Clouds,80,2013-10-03 03:58:00
11:18 PM,75.2,71.6,89,30.03,10.0,East,5.8,-,N/A,,Mostly Cloudy,80,2013-10-03 04:18:00
11:33 PM,75.2,71.6,89,30.03,10.0,East,5.8,-,N/A,,Mostly Cloudy,80,2013-10-03 04:33:00
11:38 PM,75.2,71.6,89,30.02,10.0,East,8.1,-,N/A,,Mostly Cloudy,80,2013-10-03 04:38:00
11:48 PM,75.2,71.6,89,30.02,10.0,East,5.8,-,N/A,,Mostly Cloudy,90,2013-10-03 04:48:00
11:58 PM,75.2,73.4,94,30.03,10.0,East,5.8,-,N/A,,Mostly Cloudy,90,2013-10-03 04:58:00